Vorticity
6 5 5 5 5 4 4 3 3 4 4 5 6 7 7 8 8 9 10 11 11 11 11 9 8 8 9 8 6 6 6 6 6 5 5 6 6 6 7 6 6 7 7 8 8 7 8 7 7 7 6 7 8 9 9 10 11 10 9 7 8 8 7 8 8 8 8 9 10 9 10 10 8 7 5 6 8 6 5 7 7 9 10 9 9 9 10 7
6 6 5 5 5 4 4 4 4 5 6 7 8 8 8 9 9 10 11 11 12 12 11 10 9 8 8 7 5 6 6 6 5 5 4 4 5 6 7 6 6 7 7 7 7 7 7 7 8 7 7 7 7 8 9 10 10 10 11 9 7 7 8 9 9 8 9 8 10 10 9 10 9 8 6 5 7 9 9 9 9 9 8 7 10 13 11 9
6 6 6 5 5 4 4 5 6 7 8 9 9 9 9 10 10 11 12 12 12 12 11 9 9 8 7 6 5 6 6 6 5 6 6 5 5 6 7 7 6 6 6 6 7 7 7 7 7 7 7 7 7 8 9 10 10 10 11 10 9 8 8 9 9 8 9 8 9 10 9 9 9 9 8 5 6 9 11 12 11 11 12 10 10 11 10 11
7 7 6 5 5 4 5 7 8 9 10 10 10 11 11 11 12 13 13 13 13 12 11 9 9 8 7 6 6 7 8 8 7 8 9 7 5 6 7 6 6 6 6 6 6 6 6 7 7 7 8 8 8 7 8 9 10 11 10 9 9 9 9 9 9 8 9 8 8 8 8 8 8 8 8 7 7 10 12 12 10 9 14 13 8 9 10 8
8 7 6 5 5 6 7 9 10 10 11 11 11 11 11 12 13 13 14 14 14 13 11 10 9 8 8 8 8 9 9 9 10 11 10 10 7 5 5 5 5 5 5 6 6 6 6 7 7 8 8 9 9 7 8 8 8 9 9 9 9 9 9 10 9 9 10 9 8 9 8 8 8 8 8 8 8 8 9 13 15 10 8 6 3 7 12 8
8 7 6 6 6 8 9 10 10 11 11 11 12 12 11 12 13 13 13 13 13 13 12 10 10 9 9 9 9 9 10 10 10 11 11 11 9 7 6 6 6 5 6 6 7 8 8 9 9 9 9 9 9 8 8 8 7 7 8 9 9 9 6 6 7 8 10 9 8 9 8 8 7 8 8 8 9 10 13 13 12 10 6 4 2 -1 2 4
8 7 6 7 8 9 10 10 10 10 10 10 11 11 11 12 13 13 12 12 13 12 12 12 11 10 10 10 10 10 11 10 10 10 11 11 10 8 7 6 6 6 7 7 9 10 11 12 11 10 10 9 9 8 8 7 7 7 7 7 7 8 5 4 6 6 7 7 8 9 7 7 7 7 9 9 9 11 14 11 6 8 10 9 6 -1 -1 3
7 7 7 8 9 9 9 9 9 8 8 8 8 9 10 11 12 12 11 11 11 11 11 12 12 11 11 11 11 11 11 11 11 12 12 12 10 8 7 6 6 7 8 10 11 12 12 12 12 11 9 9 8 7 7 6 6 6 6 7 6 6 4 4 6 6 6 5 7 8 7 8 8 8 9 9 11 11 10 8 8 8 7 8 6 2 3 6
7 7 8 9 8 8 8 8 8 7 6 5 5 6 7 8 10 12 12 11 11 11 12 12 12 12 12 12 11 11 10 11 11 12 13 12 11 10 9 9 9 10 12 13 13 13 13 13 12 12 10 9 8 7 8 7 7 7 7 7 8 7 4 3 5 4 4 5 6 8 8 9 9 10 11 10 10 12 12 10 10 8 5 6 5 3 6 7
7 8 9 8 7 7 7 7 6 6 5 5 5 4 5 6 8 10 12 12 11 11 11 12 12 12 12 12 11 10 10 10 10 11 11 11 11 10 11 12 12 13 14 14 13 12 11 12 12 11 10 10 9 9 9 9 8 8 8 10 10 9 7 6 6 5 4 4 6 7 8 8 8 9 11 12 10 10 14 12 8 7 5 4 4 6 9 7
7 8 9 8 6 7 7 7 6 6 6 6 6 5 5 5 5 7 9 11 12 12 11 11 11 12 12 11 10 9 10 10 10 10 10 10 10 10 11 11 12 13 13 14 14 13 12 11 11 10 10 10 10 10 10 11 10 10 10 11 11 11 10 9 8 7 7 6 7 7 7 9 10 10 8 8 11 10 10 11 8 8 8 6 6 4 3 2
8 9 8 7 6 6 7 7 6 6 7 7 7 7 6 6 5 5 6 7 10 13 13 11 10 10 11 10 10 8 8 9 8 9 9 10 9 9 9 9 10 11 12 13 13 14 14 13 12 12 11 11 11 10 11 11 11 11 11 11 11 11 11 12 11 9 8 7 8 7 8 11 8 7 9 7 8 10 8 10 8 7 8 6 4 1 -1 -0
8 9 8 7 5 6 6 6 6 7 7 7 7 7 7 6 6 6 6 5 6 9 11 12 11 10 9 9 9 8 8 7 7 7 7 8 8 8 8 8 10 11 11 12 12 12 12 12 13 13 12 12 12 10 11 11 11 11 11 10 9 10 12 10 11 10 9 9 7 10 15 23 20 7 8 9 7 9 7 9 9 6 5 4 3 2 1 1
8 9 8 6 5 5 5 5 6 6 7 7 8 7 7 6 6 6 6 6 5 5 6 9 11 11 10 9 8 8 8 8 8 7 7 7 6 7 7 7 9 11 11 11 11 10 10 11 12 13 13 14 14 12 12 13 11 11 11 12 7 10 15 9 9 10 8 8 7 11 6 11 23 12 5 9 6 8 6 6 9 6 3 2 2 2 1 1
8 9 9 6 5 4 4 4 4 5 6 7 7 7 7 6 5 5 6 6 7 6 6 6 7 10 11 11 10 8 7 7 7 7 7 7 7 8 7 6 7 9 10 11 12 11 11 12 11 13 14 14 14 13 14 12 12 11 8 11 6 6 11 7 7 8 8 8 6 14 4 -3 19 15 4 9 8 8 7 6 7 6 4 2 1 1 1 0
8 9 9 7 6 4 4 4 4 5 6 6 7 7 7 6 5 5 6 6 7 7 7 6 6 7 7 9 11 11 10 8 7 7 7 7 7 8 8 7 6 6 9 11 12 12 12 12 12 13 13 13 13 13 14 13 13 12 6 9 7 3 9 15 13 5 9 11 5 13 -0 -16 10 17 5 9 8 7 8 6 6 6 7 7 5 4 2 2
8 10 10 8 7 5 4 4 4 4 5 6 7 7 6 6 6 5 6 7 7 7 8 7 7 6 6 6 8 10 11 11 10 8 7 7 7 7 7 6 5 4 6 8 10 12 12 11 11 11 11 12 13 13 16 14 13 13 11 11 10 7 8 16 20 7 7 11 6 12 -1 -22 -3 13 8 8 8 8 8 7 7 6 6 6 5 3 3 4
9 10 9 8 7 6 5 4 4 4 5 6 6 7 6 6 5 6 7 7 7 8 9 9 8 7 7 7 7 7 8 10 11 11 10 8 7 6 6 6 5 4 4 7 9 10 10 10 9 9 10 10 10 10 11 10 10 11 13 11 12 13 2 -1 11 11 8 9 6 11 11 2 5 9 7 6 7 8 8 8 9 9 9 9 7 6 6 5
10 9 9 9 8 7 6 5 5 5 5 6 6 6 6 5 5 5 6 6 7 9 9 10 9 8 7 6 6 7 7 8 9 10 11 11 10 8 7 6 6 5 4 6 8 9 8 8 7 7 7 7 8 9 7 7 8 9 12 12 12 14 6 -1 7 12 10 11 10 9 8 9 9 7 7 6 4 5 5 6 7 8 8 8 9 8 4 5
10 10 9 9 8 7 7 6 5 5 5 5 6 6 6 6 5 6 7 7 7 8 8 8 8 9 9 9 8 7 8 9 8 8 8 9 10 10 10 9 8 7 5 5 6 7 7 6 6 5 5 6 6 8 9 10 11 11 13 15 14 11 10 11 10 10 10 7 10 11 6 7 9 10 12 10 7 5 3 3 3 4 4 3 4 2 2 7
10 10 9 8 8 8 7 6 5 5 5 6 6 6 6 6 5 5 6 7 8 8 8 7 7 8 9 9 9 8 7 7 7 8 7 7 8 8 10 9 8 8 7 6 5 4 4 4 4 4 3 5 4 5 7 9 10 13 13 12 11 8 7 12 10 10 11 6 7 12 10 9 10 11 15 18 19 15 9 6 4 3 3 2 2 2 5 9
9 9 9 8 8 7 7 6 5 5 5 6 7 6 7 7 6 6 7 8 8 8 8 8 8 7 6 6 7 7 6 6 6 6 7 8 8 7 8 9 8 8 8 7 6 5 5 4 3 4 4 3 3 3 4 5 5 7 8 7 6 4 3 6 7 5 5 3 4 8 8 8 9 10 12 16 22 23 18 14 10 8 6 5 5 6 8 9
9 9 8 8 8 7 6 6 5 5 6 6 6 6 7 7 7 8 8 9 9 10 9 10 10 8 7 6 6 7 8 7 7 7 8 9 8 8 7 8 7 8 8 8 9 8 6 5 5 5 5 5 5 4 3 3 4 3 4 4 3 3 4 5 6 7 6 3 3 4 3 4 6 6 6 7 13 18 17 15 14 12 11 9 9 9 10 9
9 9 9 8 7 6 5 5 5 6 6 5 6 7 8 9 10 10 11 11 11 11 11 11 11 10 9 9 8 8 8 7 8 8 8 8 8 9 8 7 7 7 8 7 10 9 6 7 9 7 7 8 8 8 6 4 4 4 5 4 3 3 2 1 1 3 4 3 3 2 2 6 7 5 6 6 6 9 11 10 10 12 11 9 8 8 8 8
8 7 7 6 6 6 6 6 5 6 6 7 8 10 11 11 11 11 11 11 11 11 12 11 12 12 12 11 11 10 9 8 8 7 7 8 8 9 8 9 10 9 9 9 10 8 6 7 7 7 7 8 9 10 10 9 8 7 7 6 6 6 5 3 2 -0 2 8 9 8 6 7 8 6 5 5 5 7 8 6 5 7 8 8 9 8 6 6
7 6 5 5 5 5 6 6 6 6 7 9 10 10 11 11 11 11 10 10 9 10 10 10 11 11 12 13 13 13 13 11 10 9 9 9 8 9 9 10 11 10 10 11 11 9 8 9 9 9 8 8 9 8 10 12 11 11 13 12 9 8 7 7 7 4 5 8 8 9 8 5 6 10 11 10 9 8 9 8 6 5 6 7 7 6 4 4
7 8 8 8 7 6 6 7 8 8 8 10 11 11 11 12 11 11 12 11 8 8 10 12 13 11 12 14 13 14 14 13 14 14 12 11 10 9 9 9 9 9 9 11 12 11 10 11 11 11 12 14 13 11 13 14 11 9 12 12 10 11 11 8 9 8 5 4 3 5 7 5 5 8 11 12 12 11 10 10 9 7 6 5 5 4 4 5
5 6 6 7 8 8 8 8 9 10 10 11 12 13 12 11 11 12 13 11 9 10 11 12 11 10 11 12 12 13 13 13 15 14 13 13 12 10 8 8 7 7 8 8 8 9 9 10 10 10 12 12 12 12 12 12 13 10 8 11 11 10 11 10 11 9 6 7 9 9 10 11 9 8 8 8 8 8 8 9 9 8 6 6 6 6 6 7
5 5 6 6 7 8 9 9 9 10 12 12 12 13 12 11 11 12 11 9 10 13 13 11 11 10 12 12 12 12 12 12 12 11 11 11 12 12 11 10 9 9 10 9 7 8 9 9 9 10 10 9 9 12 12 11 14 11 9 12 11 9 10 9 8 8 7 8 8 7 7 8 9 9 10 11 11 8 7 9 9 7 7 6 6 7 8 7
6 5 6 6 7 8 8 9 10 11 12 13 12 12 11 11 12 11 10 9 11 11 10 12 14 13 12 12 11 10 10 10 10 9 8 8 9 10 11 11 11 10 10 10 9 9 9 9 8 8 9 9 8 9 9 9 10 9 8 11 13 12 12 10 9 8 7 10 14 15 14 10 8 10 9 10 14 11 8 10 10 9 8 8 7 7 7 7
4 4 3 4 5 7 8 10 11 12 12 12 11 10 9 10 10 9 8 10 11 10 9 12 14 13 12 11 9 9 10 10 9 9 8 8 8 7 8 9 9 10 10 10 10 10 11 11 10 10 9 10 10 9 9 8 9 8 8 10 9 8 11 14 16 16 13 15 17 16 13 12 13 15 13 17 23 21 15 11 11 12 11 10 9 8 7 7
2 2 2 3 5 7 9 10 11 12 11 11 11 10 9 9 9 9 9 9 9 10 12 13 12 11 11 9 8 7 7 8 9 9 9 9 9 8 8 8 9 10 11 12 13 12 13 10 8 10 10 9 10 11 10 9 10 11 9 8 6 8 13 10 9 14 15 13 10 7 8 11 13 10 7 13 20 22 21 18 15 15 15 14 14 13 12 11
3 3 4 4 6 8 9 10 11 11 11 10 10 9 9 8 8 9 10 8 8 10 11 10 9 11 10 8 9 9 8 8 8 9 10 11 10 10 10 11 13 12 10 11 11 11 13 15 15 15 14 14 13 12 11 8 9 12 12 10 8 10 9 6 11 15 10 9 11 10 9 8 8 9 9 11 13 14 17 18 17 16 16 17 18 19 21 21
4 5 6 6 7 8 9 10 11 10 10 10 10 9 9 8 6 9 10 8 8 8 7 7 10 12 10 8 9 10 10 7 6 8 10 11 10 11 11 10 11 10 7 6 8 9 9 9 12 12 11 13 14 13 12 10 10 11 9 7 5 3 -2 0 9 9 4 12 18 12 6 4 5 8 9 8 8 10 11 11 11 12 11 12 13 15 18 22
7 7 8 8 8 9 9 10 11 10 9 8 8 9 10 9 8 9 10 9 7 6 5 6 7 8 7 7 7 7 6 3 2 5 6 5 5 6 5 4 4 3 3 4 6 7 4 1 4 5 6 8 8 9 11 11 14 15 12 10 10 9 7 3 -0 -5 -6 -5 -5 -4 -1 4 6 4 3 5 8 11 14 13 10 8 9 9 11 12 11 13
8 8 8 8 7 8 8 10 11 10 9 7 7 8 9 10 10 9 9 9 8 6 5 4 4 4 4 5 6 6 7 6 6 8 8 5 2 0 -1 0 2 3 4 5 3 3 4 6 8 6 5 7 5 5 7 6 8 9 9 12 13 11 11 10 7 8 10 3 2 6 7 8 9 7 8 9 10 11 13 15 11 7 6 5 7 10 10 9
8 8 8 8 8 7 8 8 9 10 9 8 6 6 7 9 11 11 9 8 7 6 5 3 3 3 2 3 5 6 8 9 10 11 11 10 6 4 2 3 5 5 5 5 5 6 4 4 8 6 3 5 5 4 5 4 5 5 4 6 9 9 8 9 9 9 11 9 11 13 11 11 9 8 13 13 10 10 9 10 13 11 9 6 5 7 9 9
9 8 9 9 8 8 7 6 7 8 9 8 7 7 7 7 8 10 10 8 6 6 6 5 4 4 3 3 3 4 5 6 7 7 9 11 11 10 9 7 7 6 5 5 6 6 3 3 7 7 6 9 7 6 6 5 5 7 5 3 1 2 5 8 9 10 11 13 14 12 13 16 13 7 9 10 10 11 8 7 9 11 12 10 9 7 7 9
10 10 10 9 8 9 8 6 5 6 7 8 8 7 7 8 7 8 9 9 7 5 6 6 6 6 5 3 3 3 3 3 4 4 5 6 7 7 7 6 6 5 5 5 4 5 6 7 6 5 8 9 7 8 10 9 9 8 8 10 9 6 5 2 1 1 2 3 5 3 6 16 22 17 10 7 9 9 9 9 8 8 9 8 7 5 3 6
9 10 10 10 10 10 9 9 6 5 4 5 6 6 6 7 7 8 9 9 9 7 6 6 7 7 7 6 5 4 3 3 4 3 4 3 3 4 4 3 4 4 4 4 3 4 5 4 3 3 3 4 6 11 11 8 8 5 4 9 12 13 13 11 9 8 5 2 -0 0 2 3 5 8 8 9 9 5 5 10 8 5 6 7 7 6 6 8
9 9 9 10 11 10 10 10 9 6 4 4 4 5 5 5 5 6 7 8 8 8 7 5 5 6 6 5 6 5 4 3 3 3 3 3 3 4 4 3 4 4 4 4 3 4 2 0 3 3 2 4 4 5 4 2 3 5 4 3 2 5 8 6 7 12 12 8 5 6 5 -0 -4 -0 4 5 6 6 5 7 8 6 5 6 6 4 5 9
12 10 10 10 10 11 11 10 10 10 8 5 3 3 3 4 3 4 4 4 5 5 5 4 3 3 4 3 4 4 3 2 3 3 3 4 3 3 3 3 4 4 4 4 3 4 4 3 3 3 4 4 1 1 6 6 6 8 9 9 7 6 7 6 6 10 8 7 13 16 14 12 11 10 9 5 4 8 7 4 4 5 4 4 4 2 1 2
16 14 12 11 10 10 10 10 10 11 10 9 7 4 3 2 2 2 2 2 2 2 2 3 2 2 2 2 2 3 3 2 3 2 2 3 2 3 4 3 4 5 4 4 4 5 6 5 5 5 5 4 3 5 7 6 7 7 8 12 12 7 6 7 7 10 10 8 10 9 6 9 13 14 15 12 7 9 12 8 5 4 3 3 3 4 3 2
16 17 16 13 11 10 9 9 10 10 11 11 11 9 7 5 3 2 1 2 2 2 1 2 2 1 2 2 1 2 3 3 4 3 2 4 3 4 5 4 5 6 5 5 5 5 6 4 4 5 4 3 4 6 6 7 8 7 6 8 8 6 7 5 1 3 8 6 2 -3 -5 -0 7 12 12 9 8 8 10 10 8 5 3 2 2 4 5 5
12 14 16 15 13 12 11 10 10 10 10 11 11 11 10 9 8 6 5 4 3 3 3 3 2 2 2 2 1 2 2 3 5 4 3 3 4 4 4 4 5 5 6 6 5 6 7 4 5 6 4 4 6 6 6 6 5 7 9 9 7 8 8 7 7 7 7 10 13 14 10 4 3 5 6 8 13 11 7 9 10 10 9 5 3 2 2 2
12 11 12 12 12 12 12 12 11 11 10 11 11 11 11 10 10 9 8 7 7 6 5 5 4 4 4 3 2 3 2 2 3 4 4 3 4 4 4 5 6 6 7 7 6 7 7 5 6 7 5 7 9 5 4 7 7 7 9 9 9 10 9 9 10 9 6 4 3 3 4 4 3 4 6 9 9 7 8 12 11 10 11 10 8 6 5 4
13 13 12 12 11 10 11 11 12 11 11 11 11 11 11 11 11 10 10 10 9 9 8 8 8 8 8 8 7 6 6 5 5 5 6 6 7 7 7 7 7 7 7 7 7 7 8 7 7 7 7 8 9 6 5 10 11 8 8 8 9 10 11 10 10 10 10 8 5 2 3 6 6 4 5 6 4 6 13 20 19 15 12 11 11 11 10 10
6 9 11 13 13 12 12 11 11 11 11 10 11 11 11 11 11 11 11 11 11 10 10 10 10 10 11 11 11 11 10 9 9 8 8 8 8 8 9 8 8 8 8 8 8 7 8 8 7 7 9 9 9 9 9 10 10 10 10 10 10 10 9 9 10 11 10 7 8 9 7 5 6 7 10 10 9 12 17 21 24 22 15 11 11 11 10 11
7 5 5 7 10 11 13 14 14 14 13 12 12 12 12 11 11 11 11 11 11 11 11 11 10 10 9 10 10 10 10 10 10 10 9 9 9 9 9 9 8 8 9 8 8 7 7 9 9 9 10 9 9 10 9 10 10 9 9 9 10 10 9 9 9 10 9 7 7 8 7 5 7 8 8 7 6 4 -1 -5 -5 -7 -5 2 8 9 9 10
12 10 7 6 5 5 6 9 11 13 14 15 15 14 14 14 13 14 13 13 13 13 13 12 12 11 10 10 10 10 11 11 11 11 11 11 11 10 9 10 9 8 8 9 10 9 9 10 10 10 10 9 9 10 10 9 9 7 8 9 8 8 8 9 9 7 7 7 6 6 5 5 7 7 7 9 11 9 1 -3 1 -1 -2 4 9 8 9 11
13 13 12 11 9 8 6 5 5 5 7 8 9 11 12 12 13 14 15 16 16 17 17 18 18 17 16 15 14 14 14 13 13 13 12 11 11 9 8 9 9 9 9 9 10 10 10 10 10 10 10 9 9 9 8 8 8 7 7 7 7 8 8 7 7 7 6 6 7 6 6 8 10 10 12 11 10 12 11 9 14 16 11 9 9 9 10 11
16 15 15 14 13 12 11 10 8 7 5 4 4 4 5 6 7 8 9 10 11 11 12 13 14 13 13 13 13 12 11 10 10 10 9 9 9 9 9 9 9 10 10 10 10 10 9 9 9 9 9 10 9 9 9 10 9 9 9 9 10 11 10 10 10 10 10 10 10 9 11 12 11 9 12 11 7 10 16 13 8 8 12 15 15 12 10 9
Height
5771 5772 5772 5772 5772 5772 5772 5772 5772 5772 5772 5771 5771 5770 5770 5770 5770 5770 5770 5770 5770 5770 5771 5771 5772 5772 5773 5773 5774 5774 5775 5775 5776 5777 5777 5777 5778 5778 5779 5779 5780 5780 5781 5782 5782 5783 5783 5783 5784 5784 5784 5785 5785 5786 5787 5788 5789 5790 5790 5791 5792 5793 5793 5794 5794 5795 5795 5796 5797 5799 5800 5801 5802 5803 5803 5805 5806 5807 5808 5809 5810 5810 5811 5811 5811 5813 5813 5814
5769 5769 5770 5770 5770 5770 5770 5770 5770 5769 5769 5769 5768 5768 5768 5767 5767 5767 5767 5767 5767 5768 5768 5768 5769 5769 5770 5771 5771 5772 5772 5773 5774 5774 5774 5775 5775 5776 5776 5777 5778 5778 5779 5779 5780 5780 5781 5781 5782 5782 5782 5783 5783 5784 5784 5785 5787 5787 5788 5789 5790 5790 5790 5791 5792 5792 5793 5794 5795 5797 5799 5799 5800 5800 5801 5802 5804 5805 5807 5807 5808 5808 5809 5809 5810 5811 5811 5811
5767 5767 5768 5768 5768 5768 5768 5768 5767 5767 5767 5766 5766 5765 5765 5765 5765 5765 5764 5764 5765 5765 5765 5766 5766 5767 5768 5768 5769 5769 5770 5770 5771 5771 5772 5772 5773 5773 5774 5775 5775 5776 5776 5777 5777 5778 5778 5779 5779 5780 5780 5780 5781 5782 5782 5783 5784 5785 5786 5787 5787 5788 5788 5789 5789 5790 5791 5792 5793 5795 5796 5797 5797 5798 5798 5800 5801 5803 5804 5805 5806 5806 5806 5807 5808 5809 5808 5809
5765 5765 5766 5766 5766 5766 5766 5765 5765 5765 5764 5764 5764 5763 5763 5763 5762 5762 5762 5762 5762 5762 5763 5763 5764 5764 5765 5766 5766 5767 5767 5768 5768 5769 5769 5770 5770 5771 5772 5772 5773 5774 5774 5774 5775 5775 5776 5776 5777 5777 5778 5778 5779 5780 5780 5782 5782 5783 5784 5785 5785 5786 5786 5787 5787 5788 5789 5790 5791 5792 5794 5795 5795 5796 5797 5798 5799 5800 5801 5802 5802 5803 5804 5805 5805 5806 5806 5806
5763 5763 5764 5764 5764 5764 5763 5763 5763 5763 5762 5762 5762 5761 5761 5760 5760 5760 5760 5760 5760 5760 5760 5761 5761 5762 5763 5763 5764 5764 5765 5765 5765 5766 5767 5767 5768 5769 5769 5770 5771 5771 5772 5772 5772 5773 5773 5774 5774 5775 5776 5776 5777 5778 5778 5780 5781 5782 5783 5783 5784 5784 5785 5785 5785 5786 5787 5788 5789 5790 5792 5792 5793 5794 5794 5795 5796 5796 5797 5798 5799 5800 5800 5801 5801 5802 5802 5803
5761 5761 5762 5762 5762 5762 5762 5761 5761 5761 5761 5760 5760 5759 5759 5758 5758 5758 5758 5758 5758 5758 5758 5759 5759 5760 5760 5761 5761 5762 5762 5762 5763 5764 5764 5765 5766 5766 5767 5767 5768 5768 5769 5769 5770 5770 5771 5771 5772 5773 5774 5774 5775 5776 5777 5778 5779 5780 5781 5782 5782 5782 5783 5783 5784 5784 5785 5786 5787 5788 5789 5790 5791 5791 5792 5793 5792 5793 5794 5795 5796 5796 5797 5798 5799 5799 5799 5801
5759 5759 5760 5760 5760 5760 5760 5760 5759 5759 5759 5759 5758 5758 5757 5757 5756 5756 5756 5756 5756 5756 5756 5757 5757 5758 5758 5759 5759 5760 5760 5760 5761 5761 5762 5762 5763 5764 5765 5765 5766 5766 5766 5766 5767 5768 5768 5769 5770 5771 5771 5772 5773 5774 5775 5777 5778 5778 5779 5780 5780 5781 5781 5781 5782 5783 5784 5784 5785 5786 5787 5788 5788 5789 5790 5790 5790 5791 5792 5792 5793 5794 5795 5797 5797 5798 5798 5799
5757 5758 5758 5758 5758 5758 5758 5758 5758 5758 5757 5757 5757 5756 5756 5756 5755 5755 5755 5755 5755 5755 5755 5755 5756 5756 5756 5757 5757 5758 5758 5758 5758 5759 5759 5760 5761 5762 5762 5763 5763 5763 5763 5764 5765 5765 5766 5767 5768 5769 5769 5770 5771 5772 5773 5774 5775 5776 5777 5777 5778 5779 5779 5779 5780 5781 5782 5782 5783 5785 5785 5785 5786 5787 5788 5788 5789 5789 5789 5790 5791 5792 5793 5794 5795 5796 5797 5798
5755 5756 5756 5756 5756 5756 5756 5756 5756 5756 5756 5756 5755 5755 5755 5755 5754 5754 5753 5753 5753 5753 5754 5754 5754 5754 5755 5755 5756 5756 5756 5756 5756 5757 5757 5758 5759 5759 5760 5760 5761 5761 5761 5762 5762 5763 5764 5765 5765 5766 5766 5767 5768 5769 5771 5772 5772 5773 5774 5775 5776 5776 5776 5777 5778 5779 5779 5780 5782 5783 5783 5784 5784 5785 5785 5786 5786 5787 5788 5788 5789 5790 5791 5792 5793 5794 5796 5796
5753 5754 5754 5754 5755 5755 5755 5755 5755 5754 5754 5754 5754 5754 5754 5754 5753 5753 5752 5752 5752 5752 5752 5753 5753 5753 5753 5754 5754 5754 5754 5754 5755 5755 5755 5756 5756 5757 5758 5758 5758 5759 5759 5760 5760 5761 5761 5762 5762 5763 5764 5765 5766 5767 5768 5769 5769 5770 5771 5772 5773 5773 5773 5775 5776 5777 5777 5779 5780 5781 5781 5782 5782 5783 5783 5783 5784 5785 5786 5787 5788 5789 5790 5791 5792 5793 5794 5794
5752 5752 5752 5753 5753 5753 5753 5753 5753 5753 5753 5753 5753 5753 5753 5752 5752 5752 5751 5751 5751 5751 5751 5751 5751 5752 5752 5752 5752 5752 5752 5752 5753 5753 5753 5754 5755 5755 5756 5756 5757 5757 5757 5758 5758 5758 5759 5759 5760 5761 5761 5762 5763 5764 5765 5766 5767 5768 5768 5770 5770 5770 5771 5772 5773 5774 5775 5777 5778 5779 5779 5780 5781 5781 5781 5782 5783 5783 5784 5785 5786 5787 5788 5789 5790 5791 5792 5792
5750 5750 5750 5751 5751 5751 5751 5751 5751 5751 5751 5751 5751 5751 5751 5751 5751 5750 5750 5750 5750 5750 5750 5750 5750 5750 5750 5750 5750 5750 5750 5751 5751 5751 5752 5752 5753 5753 5754 5754 5755 5755 5755 5756 5756 5756 5757 5757 5758 5758 5759 5760 5761 5762 5763 5764 5764 5765 5766 5767 5767 5767 5768 5769 5771 5772 5773 5774 5775 5776 5778 5779 5779 5779 5779 5780 5781 5782 5783 5784 5785 5786 5787 5788 5788 5789 5790 5791
5748 5748 5749 5749 5749 5749 5749 5749 5750 5750 5750 5750 5750 5750 5750 5749 5749 5749 5749 5749 5749 5749 5748 5748 5748 5748 5748 5748 5749 5749 5749 5749 5749 5750 5750 5751 5751 5751 5752 5753 5753 5753 5754 5754 5754 5754 5754 5755 5755 5756 5757 5758 5758 5760 5761 5761 5762 5762 5764 5764 5765 5766 5765 5767 5768 5769 5770 5771 5773 5775 5778 5777 5775 5776 5777 5778 5779 5780 5782 5782 5783 5784 5785 5786 5787 5788 5789 5789
5746 5746 5747 5747 5747 5748 5748 5748 5748 5748 5748 5748 5748 5748 5748 5748 5748 5748 5747 5747 5747 5747 5747 5747 5747 5747 5747 5747 5747 5747 5747 5748 5748 5748 5749 5749 5749 5750 5750 5751 5751 5752 5752 5752 5752 5752 5752 5753 5754 5754 5755 5756 5757 5758 5758 5759 5760 5760 5762 5762 5764 5765 5763 5764 5766 5767 5767 5768 5770 5774 5777 5775 5771 5774 5776 5776 5778 5779 5780 5781 5782 5783 5784 5785 5785 5786 5787 5788
5744 5744 5745 5745 5745 5746 5746 5746 5746 5746 5746 5746 5746 5746 5746 5746 5746 5746 5746 5746 5746 5746 5746 5745 5745 5745 5745 5745 5745 5746 5746 5746 5747 5747 5747 5747 5748 5748 5749 5749 5750 5750 5750 5750 5751 5751 5751 5751 5752 5753 5754 5754 5755 5756 5756 5757 5758 5759 5761 5761 5763 5763 5761 5762 5764 5764 5765 5766 5768 5771 5776 5774 5768 5771 5774 5774 5777 5778 5779 5780 5781 5782 5782 5783 5784 5784 5785 5786
5742 5742 5743 5743 5743 5744 5744 5744 5744 5744 5745 5745 5745 5745 5744 5744 5744 5744 5744 5744 5744 5744 5744 5744 5744 5744 5744 5743 5743 5744 5744 5745 5745 5745 5745 5746 5746 5747 5747 5748 5748 5748 5749 5749 5749 5750 5750 5750 5751 5751 5752 5753 5753 5754 5755 5756 5757 5758 5759 5759 5761 5761 5760 5761 5761 5762 5763 5764 5766 5769 5773 5771 5766 5769 5772 5773 5775 5776 5777 5778 5779 5780 5781 5781 5782 5782 5783 5783
5739 5740 5741 5741 5741 5742 5742 5742 5742 5742 5743 5743 5743 5743 5743 5743 5743 5743 5743 5742 5742 5742 5742 5742 5742 5742 5742 5742 5742 5742 5742 5743 5743 5743 5744 5744 5745 5745 5746 5746 5747 5747 5747 5748 5748 5748 5749 5749 5750 5750 5751 5751 5752 5753 5754 5755 5756 5757 5757 5758 5759 5759 5760 5760 5759 5760 5761 5762 5763 5765 5769 5766 5765 5769 5770 5771 5773 5774 5775 5776 5777 5778 5779 5779 5779 5780 5781 5781
5737 5738 5738 5739 5739 5739 5740 5740 5740 5740 5741 5741 5741 5741 5741 5741 5741 5741 5741 5740 5740 5740 5740 5740 5740 5740 5740 5741 5740 5740 5740 5741 5741 5742 5742 5743 5743 5743 5744 5745 5745 5745 5746 5746 5747 5747 5748 5748 5748 5749 5749 5750 5751 5751 5753 5753 5754 5755 5755 5756 5757 5757 5759 5758 5757 5758 5759 5760 5761 5763 5765 5764 5764 5767 5767 5769 5770 5771 5772 5773 5774 5776 5776 5777 5777 5778 5778 5778
5735 5736 5736 5736 5737 5737 5738 5738 5738 5738 5738 5738 5739 5739 5739 5739 5739 5739 5739 5739 5738 5738 5738 5738 5738 5738 5739 5739 5739 5739 5739 5739 5740 5740 5740 5740 5741 5742 5742 5743 5744 5744 5745 5745 5746 5746 5746 5747 5747 5747 5748 5748 5749 5750 5750 5751 5752 5753 5754 5755 5756 5756 5756 5755 5755 5756 5757 5759 5759 5760 5762 5761 5762 5763 5764 5766 5767 5768 5769 5769 5771 5772 5773 5774 5774 5775 5775 5775
5733 5733 5734 5734 5735 5735 5735 5736 5736 5736 5736 5736 5736 5737 5737 5737 5737 5737 5737 5737 5736 5737 5736 5736 5736 5736 5737 5737 5737 5737 5737 5738 5738 5738 5738 5738 5739 5740 5740 5741 5742 5742 5743 5743 5744 5744 5745 5745 5745 5745 5746 5747 5748 5748 5749 5750 5751 5752 5753 5753 5754 5755 5754 5753 5754 5754 5755 5757 5756 5756 5759 5759 5759 5760 5761 5763 5764 5765 5765 5766 5768 5768 5769 5770 5771 5772 5772 5772
5730 5731 5731 5732 5732 5733 5733 5733 5733 5734 5734 5734 5734 5734 5735 5735 5735 5735 5735 5734 5734 5735 5734 5734 5734 5734 5734 5735 5735 5736 5736 5736 5736 5736 5736 5737 5737 5738 5738 5739 5739 5740 5741 5742 5742 5743 5743 5743 5742 5743 5744 5745 5747 5747 5748 5749 5750 5751 5752 5752 5753 5753 5752 5752 5753 5753 5754 5756 5754 5754 5757 5757 5757 5757 5758 5760 5761 5762 5762 5763 5764 5765 5766 5766 5767 5768 5768 5768
5728 5729 5729 5730 5730 5731 5731 5731 5731 5731 5732 5732 5732 5732 5732 5732 5733 5732 5732 5732 5732 5732 5732 5732 5732 5732 5732 5732 5733 5734 5734 5734 5734 5734 5734 5735 5735 5736 5736 5737 5737 5737 5739 5740 5740 5741 5741 5740 5740 5741 5742 5743 5745 5746 5746 5747 5748 5749 5750 5751 5752 5751 5751 5751 5751 5751 5752 5754 5753 5753 5755 5755 5755 5756 5756 5757 5758 5759 5759 5760 5761 5761 5762 5763 5764 5764 5765 5765
5726 5726 5727 5727 5728 5728 5729 5729 5729 5729 5729 5729 5730 5730 5730 5730 5730 5730 5730 5730 5730 5730 5730 5730 5730 5730 5730 5730 5730 5731 5732 5732 5732 5732 5733 5733 5733 5734 5734 5734 5735 5735 5736 5737 5738 5739 5738 5737 5738 5739 5740 5741 5742 5743 5744 5745 5746 5747 5748 5749 5749 5749 5750 5749 5748 5749 5751 5752 5751 5752 5753 5753 5753 5754 5754 5754 5755 5756 5756 5757 5757 5758 5759 5760 5761 5762 5763 5763
5724 5724 5725 5725 5726 5726 5726 5727 5727 5727 5727 5727 5727 5727 5727 5727 5727 5728 5728 5727 5727 5727 5727 5727 5727 5727 5727 5727 5728 5729 5729 5730 5730 5730 5731 5731 5731 5732 5732 5732 5733 5733 5734 5735 5736 5736 5735 5735 5736 5737 5738 5739 5740 5741 5742 5743 5743 5744 5745 5746 5746 5746 5748 5747 5746 5747 5749 5749 5750 5750 5751 5752 5751 5751 5752 5752 5753 5753 5754 5754 5755 5756 5757 5757 5758 5759 5761 5761
5722 5722 5722 5723 5723 5724 5724 5724 5724 5724 5724 5725 5725 5725 5725 5725 5725 5725 5725 5725 5725 5725 5725 5725 5725 5725 5725 5725 5725 5726 5727 5727 5728 5728 5728 5729 5729 5729 5729 5730 5731 5731 5732 5733 5733 5733 5732 5733 5734 5734 5735 5736 5738 5738 5739 5740 5740 5741 5742 5743 5743 5743 5744 5744 5744 5745 5747 5747 5747 5748 5750 5750 5748 5748 5749 5749 5750 5751 5751 5751 5752 5753 5754 5755 5756 5757 5758 5759
5719 5720 5720 5720 5721 5721 5721 5721 5722 5722 5722 5722 5722 5723 5722 5722 5722 5722 5723 5723 5722 5722 5722 5722 5722 5722 5722 5723 5723 5724 5724 5725 5725 5726 5726 5727 5727 5727 5727 5728 5729 5729 5730 5730 5731 5730 5730 5731 5731 5732 5733 5734 5735 5736 5736 5738 5738 5738 5739 5739 5740 5740 5741 5741 5741 5743 5744 5744 5744 5745 5747 5747 5745 5745 5745 5746 5747 5747 5747 5748 5749 5750 5751 5752 5753 5754 5755 5756
5717 5717 5718 5718 5718 5718 5719 5719 5719 5719 5719 5720 5720 5720 5720 5720 5720 5720 5720 5720 5720 5720 5720 5720 5720 5720 5720 5721 5721 5722 5722 5722 5723 5723 5724 5724 5724 5725 5725 5725 5726 5726 5727 5728 5728 5728 5728 5728 5729 5730 5731 5732 5733 5733 5733 5735 5736 5736 5735 5736 5737 5737 5738 5738 5739 5740 5741 5740 5740 5742 5743 5744 5744 5742 5741 5742 5743 5743 5743 5745 5746 5747 5748 5749 5750 5751 5752 5753
5715 5715 5715 5715 5716 5716 5716 5716 5716 5716 5717 5717 5717 5717 5717 5717 5717 5718 5718 5718 5718 5718 5718 5718 5718 5718 5718 5719 5719 5719 5720 5720 5721 5721 5721 5722 5722 5723 5723 5723 5724 5724 5725 5726 5726 5725 5726 5726 5726 5727 5729 5729 5729 5730 5731 5732 5733 5733 5733 5733 5734 5735 5735 5736 5736 5737 5737 5737 5738 5739 5739 5740 5741 5739 5738 5739 5740 5740 5739 5741 5742 5743 5744 5745 5746 5747 5748 5749
5712 5712 5713 5713 5713 5713 5713 5713 5714 5714 5714 5714 5715 5715 5715 5715 5715 5716 5716 5716 5715 5715 5716 5716 5716 5716 5716 5717 5717 5717 5718 5718 5719 5719 5719 5720 5720 5721 5721 5721 5722 5722 5723 5724 5723 5723 5724 5724 5724 5725 5726 5726 5726 5727 5728 5729 5730 5730 5730 5731 5732 5732 5733 5733 5734 5734 5734 5734 5735 5736 5736 5736 5737 5736 5735 5735 5737 5737 5736 5736 5738 5739 5740 5741 5742 5743 5744 5745
5710 5710 5710 5710 5710 5710 5710 5711 5711 5711 5711 5712 5712 5712 5713 5713 5713 5714 5714 5713 5714 5713 5714 5714 5714 5714 5715 5715 5715 5715 5716 5716 5717 5717 5717 5718 5718 5719 5719 5719 5720 5720 5721 5721 5721 5722 5722 5722 5722 5723 5723 5724 5724 5724 5725 5726 5727 5727 5728 5729 5729 5730 5730 5730 5731 5731 5731 5731 5732 5732 5732 5732 5733 5733 5733 5732 5733 5733 5732 5732 5733 5735 5735 5736 5737 5738 5739 5741
5707 5708 5708 5708 5708 5708 5708 5708 5708 5708 5709 5709 5709 5710 5710 5711 5711 5712 5711 5711 5712 5712 5712 5712 5712 5713 5713 5713 5713 5713 5714 5714 5715 5715 5716 5716 5716 5717 5717 5718 5718 5719 5720 5720 5720 5720 5720 5720 5720 5720 5721 5721 5722 5722 5722 5723 5724 5725 5727 5727 5727 5728 5728 5728 5728 5728 5728 5728 5728 5728 5728 5728 5730 5730 5729 5729 5729 5730 5729 5728 5729 5730 5730 5731 5732 5733 5734 5735
5704 5705 5705 5705 5705 5705 5705 5705 5705 5706 5706 5707 5707 5707 5708 5709 5709 5709 5709 5710 5710 5710 5710 5710 5711 5711 5711 5711 5711 5712 5712 5713 5713 5714 5714 5714 5715 5715 5715 5716 5717 5718 5718 5718 5718 5718 5718 5718 5718 5718 5718 5719 5719 5720 5720 5721 5722 5723 5724 5725 5725 5726 5724 5724 5725 5724 5725 5725 5724 5725 5725 5724 5726 5726 5726 5726 5726 5726 5726 5725 5726 5726 5726 5727 5728 5729 5730 5731
5701 5702 5702 5702 5702 5702 5702 5703 5703 5703 5704 5704 5705 5705 5706 5706 5707 5707 5707 5707 5708 5708 5708 5709 5709 5709 5710 5710 5710 5710 5711 5711 5711 5712 5712 5712 5713 5713 5713 5714 5715 5716 5717 5717 5717 5717 5717 5716 5716 5716 5716 5716 5717 5718 5718 5719 5720 5720 5721 5722 5722 5723 5722 5721 5722 5722 5723 5722 5721 5721 5721 5721 5722 5722 5722 5723 5723 5723 5723 5723 5723 5723 5723 5723 5724 5725 5725 5726
5698 5698 5699 5699 5699 5699 5700 5700 5700 5701 5701 5702 5702 5703 5703 5704 5704 5705 5705 5705 5706 5706 5706 5707 5707 5708 5708 5708 5708 5708 5709 5709 5710 5710 5710 5711 5711 5711 5712 5712 5713 5714 5714 5715 5715 5715 5716 5715 5714 5714 5714 5714 5715 5715 5716 5716 5717 5718 5718 5719 5719 5720 5720 5719 5719 5720 5720 5719 5717 5717 5718 5718 5719 5719 5718 5719 5720 5720 5721 5720 5720 5720 5720 5720 5721 5721 5722 5723
5695 5695 5695 5696 5696 5696 5697 5697 5697 5698 5698 5699 5699 5700 5701 5701 5702 5703 5703 5703 5704 5704 5705 5705 5705 5706 5706 5706 5706 5706 5707 5707 5708 5708 5709 5709 5709 5709 5710 5710 5711 5712 5712 5713 5713 5713 5714 5714 5713 5712 5713 5713 5713 5713 5713 5714 5715 5715 5715 5716 5717 5717 5717 5716 5716 5716 5716 5716 5714 5714 5714 5715 5716 5715 5715 5716 5717 5717 5718 5717 5717 5717 5717 5717 5718 5718 5719 5719
5691 5692 5692 5692 5693 5693 5693 5694 5694 5695 5695 5696 5697 5697 5698 5698 5699 5700 5700 5701 5701 5702 5703 5703 5703 5703 5703 5704 5704 5704 5705 5705 5706 5706 5706 5707 5707 5707 5708 5708 5709 5710 5710 5710 5710 5711 5712 5711 5710 5710 5710 5710 5711 5711 5711 5712 5712 5712 5713 5713 5713 5714 5714 5713 5713 5713 5713 5712 5711 5711 5711 5712 5712 5711 5712 5712 5713 5714 5714 5714 5714 5714 5714 5714 5715 5715 5716 5717
5687 5688 5689 5689 5689 5690 5690 5691 5691 5692 5692 5693 5693 5694 5695 5695 5696 5697 5697 5698 5699 5699 5700 5700 5700 5701 5701 5702 5702 5702 5703 5703 5703 5703 5703 5704 5704 5704 5705 5706 5706 5707 5707 5708 5708 5708 5709 5709 5708 5709 5708 5708 5709 5708 5709 5709 5709 5710 5710 5710 5710 5711 5711 5711 5710 5710 5709 5709 5708 5708 5708 5709 5709 5708 5708 5709 5709 5710 5710 5711 5711 5711 5712 5712 5712 5713 5713 5714
5684 5684 5685 5686 5686 5686 5687 5688 5688 5689 5689 5690 5690 5691 5691 5692 5693 5694 5694 5695 5696 5696 5697 5697 5697 5698 5699 5699 5699 5699 5700 5700 5700 5701 5701 5701 5701 5701 5702 5703 5703 5704 5704 5705 5705 5705 5706 5706 5705 5705 5706 5706 5706 5706 5706 5706 5706 5707 5707 5707 5708 5708 5708 5708 5707 5706 5706 5705 5705 5705 5704 5705 5706 5705 5705 5705 5705 5706 5706 5707 5708 5708 5709 5709 5709 5710 5710 5711
5680 5681 5681 5682 5683 5683 5684 5684 5685 5686 5686 5686 5687 5687 5688 5689 5689 5690 5691 5692 5693 5693 5694 5694 5694 5695 5696 5696 5696 5697 5698 5697 5698 5698 5698 5698 5698 5698 5699 5699 5700 5701 5701 5701 5702 5702 5703 5703 5703 5702 5702 5703 5703 5704 5704 5703 5703 5704 5704 5704 5705 5705 5705 5704 5704 5703 5703 5702 5701 5702 5701 5701 5702 5702 5702 5702 5702 5702 5703 5703 5704 5705 5705 5706 5706 5707 5708 5708
5676 5676 5677 5678 5679 5679 5680 5681 5682 5682 5682 5683 5684 5684 5685 5685 5686 5687 5688 5689 5689 5690 5690 5691 5692 5692 5692 5693 5693 5694 5694 5694 5695 5695 5695 5695 5695 5695 5695 5696 5696 5697 5697 5698 5698 5698 5699 5699 5700 5699 5699 5700 5700 5700 5701 5701 5700 5701 5701 5701 5701 5701 5701 5701 5701 5700 5700 5699 5698 5698 5698 5698 5698 5698 5698 5698 5698 5699 5699 5699 5700 5701 5701 5702 5703 5704 5704 5705
5672 5672 5673 5674 5675 5675 5676 5677 5678 5678 5679 5680 5680 5680 5681 5682 5682 5683 5684 5685 5686 5686 5687 5687 5688 5688 5689 5690 5690 5690 5691 5691 5691 5691 5691 5691 5692 5691 5692 5692 5693 5693 5693 5693 5693 5694 5694 5695 5695 5695 5695 5696 5696 5695 5697 5697 5697 5697 5698 5698 5698 5698 5697 5697 5696 5697 5697 5696 5696 5694 5693 5694 5694 5694 5695 5695 5695 5695 5695 5696 5696 5696 5697 5698 5699 5700 5701 5702
5667 5668 5669 5670 5670 5671 5672 5672 5673 5674 5675 5675 5676 5676 5677 5678 5678 5679 5680 5681 5682 5682 5683 5683 5684 5684 5685 5686 5686 5686 5687 5687 5687 5687 5687 5687 5688 5688 5688 5689 5689 5689 5689 5689 5689 5690 5690 5690 5690 5690 5691 5691 5690 5691 5692 5692 5692 5692 5693 5694 5694 5694 5694 5693 5692 5693 5693 5691 5691 5690 5689 5689 5689 5689 5690 5691 5690 5691 5691 5691 5691 5692 5693 5693 5694 5695 5696 5697
5663 5664 5664 5665 5666 5667 5667 5668 5669 5670 5670 5671 5672 5672 5673 5673 5674 5675 5676 5677 5678 5678 5679 5679 5680 5680 5681 5681 5682 5682 5682 5683 5683 5683 5683 5683 5683 5684 5684 5684 5685 5685 5685 5684 5684 5685 5686 5685 5685 5685 5685 5686 5686 5686 5686 5686 5686 5686 5686 5687 5688 5688 5689 5689 5688 5689 5687 5686 5687 5686 5685 5685 5685 5685 5685 5685 5685 5685 5685 5686 5686 5687 5688 5688 5689 5691 5691 5693
5659 5660 5660 5661 5661 5662 5663 5663 5665 5665 5666 5667 5667 5667 5668 5669 5670 5670 5671 5672 5673 5673 5674 5675 5675 5676 5676 5677 5677 5677 5678 5678 5678 5679 5679 5679 5679 5680 5680 5680 5680 5680 5680 5680 5680 5681 5681 5680 5680 5681 5680 5680 5680 5681 5681 5681 5681 5681 5680 5680 5681 5682 5682 5682 5683 5683 5681 5682 5683 5682 5680 5682 5681 5679 5680 5680 5680 5681 5680 5681 5681 5682 5683 5683 5684 5685 5686 5687
5655 5656 5657 5657 5656 5657 5658 5659 5660 5660 5661 5662 5662 5663 5663 5664 5665 5666 5666 5667 5667 5668 5669 5669 5670 5671 5671 5672 5672 5673 5673 5673 5673 5673 5674 5674 5674 5675 5675 5675 5676 5676 5676 5676 5676 5676 5676 5675 5675 5676 5675 5675 5675 5675 5674 5674 5674 5675 5675 5675 5675 5675 5675 5675 5676 5677 5676 5677 5678 5676 5676 5678 5677 5674 5674 5675 5675 5676 5675 5675 5676 5676 5677 5678 5679 5679 5680 5681
5651 5651 5652 5653 5653 5652 5653 5654 5655 5655 5656 5657 5657 5658 5659 5659 5660 5661 5661 5661 5662 5662 5663 5664 5665 5665 5666 5667 5667 5667 5668 5668 5668 5668 5668 5669 5669 5670 5670 5670 5670 5670 5671 5671 5671 5671 5670 5670 5670 5670 5670 5670 5671 5669 5669 5669 5668 5668 5668 5668 5669 5669 5670 5670 5669 5670 5671 5671 5671 5670 5671 5672 5672 5670 5669 5670 5669 5669 5669 5669 5670 5670 5671 5671 5672 5673 5674 5675
5647 5647 5648 5648 5648 5648 5649 5650 5650 5651 5651 5652 5652 5653 5654 5654 5654 5655 5655 5656 5657 5657 5658 5658 5659 5660 5660 5661 5662 5661 5662 5662 5662 5663 5663 5663 5663 5664 5664 5664 5664 5665 5665 5665 5665 5665 5664 5664 5665 5664 5664 5665 5664 5663 5663 5663 5663 5663 5662 5662 5662 5663 5664 5664 5663 5664 5665 5663 5664 5665 5665 5664 5666 5666 5665 5664 5663 5663 5663 5663 5663 5663 5664 5665 5665 5666 5667 5668
5644 5643 5644 5644 5644 5644 5644 5645 5646 5646 5646 5647 5647 5648 5649 5649 5649 5649 5650 5651 5651 5652 5652 5652 5653 5654 5654 5655 5656 5656 5656 5656 5656 5657 5657 5657 5657 5657 5657 5658 5658 5658 5658 5658 5659 5659 5658 5658 5658 5658 5659 5659 5658 5657 5657 5657 5656 5657 5657 5657 5657 5657 5657 5657 5658 5659 5659 5657 5658 5660 5658 5657 5659 5661 5660 5660 5659 5658 5658 5657 5656 5656 5657 5658 5659 5659 5660 5661
5640 5640 5640 5640 5639 5639 5640 5640 5641 5641 5642 5642 5642 5643 5643 5644 5644 5644 5645 5645 5646 5647 5647 5647 5648 5649 5649 5650 5650 5649 5650 5650 5651 5651 5651 5651 5651 5651 5651 5651 5651 5652 5652 5651 5652 5652 5652 5652 5651 5652 5652 5652 5652 5651 5650 5650 5650 5649 5650 5651 5651 5651 5650 5651 5652 5653 5653 5652 5652 5653 5653 5652 5652 5653 5654 5654 5653 5653 5652 5650 5649 5649 5650 5652 5653 5653 5654 5655
5635 5635 5635 5635 5635 5635 5635 5636 5636 5637 5637 5637 5637 5638 5638 5638 5639 5639 5639 5640 5640 5641 5642 5642 5642 5643 5643 5644 5644 5644 5644 5645 5644 5645 5645 5645 5645 5645 5644 5644 5645 5645 5645 5645 5645 5646 5646 5645 5645 5645 5645 5645 5645 5645 5644 5644 5643 5642 5643 5644 5644 5645 5646 5646 5646 5646 5646 5646 5646 5646 5646 5646 5645 5645 5647 5648 5647 5647 5645 5644 5644 5644 5644 5645 5646 5646 5648 5649
5631 5631 5631 5631 5631 5631 5631 5631 5632 5632 5632 5632 5632 5633 5633 5633 5634 5634 5634 5634 5635 5635 5636 5636 5637 5637 5638 5637 5638 5638 5638 5639 5639 5639 5639 5639 5639 5639 5639 5639 5639 5639 5639 5639 5639 5639 5639 5638 5638 5638 5637 5638 5639 5638 5638 5637 5636 5635 5636 5637 5638 5639 5640 5640 5639 5639 5639 5639 5640 5639 5639 5640 5639 5639 5641 5642 5641 5640 5638 5638 5638 5637 5638 5638 5639 5639 5640 5641
5626 5626 5626 5626 5626 5626 5626 5626 5627 5626 5627 5627 5627 5628 5628 5628 5629 5629 5629 5629 5630 5630 5631 5631 5632 5632 5632 5632 5632 5633 5633 5633 5633 5633 5634 5633 5633 5633 5633 5633 5633 5633 5633 5633 5632 5633 5632 5632 5632 5631 5630 5631 5631 5630 5631 5631 5629 5628 5629 5631 5633 5632 5632 5632 5632 5632 5633 5632 5632 5631 5632 5633 5632 5632 5634 5635 5634 5634 5633 5633 5633 5632 5632 5632 5631 5631 5632 5633